Hourly Data Report for September 03, 2015

All times are specified in Local Standard Time (LST). Add 1 hour to adjust for Daylight Saving Time where and when it is observed.

Metadata including Station Name, Province, Latitude, Longitude, Elevation, Climate ID, WMO ID, TC ID
GRAND ETANG
NOVA SCOTIA
Latitude: 46°33'00.000" N Longitude: 61°03'00.000" W Elevation: 12.80 m
Climate ID: 8201969 WMO ID: TC ID: WZQ
Hourly Data Report for September 3, 2015
Temp Definition
°C

Dew Point Temp Definition
°C

Rel Hum Definition
%

Wind Dir Definition
10's deg
Wind Spd Definition
km/h

Visibility Definition
km

Stn Press Definition
kPa

Hmdx Definition

Wind Chill Definition

Weather Definition

00:00 18.8 LegendMM 88 16 12 100.51 LegendNANA
01:00 18.8 LegendMM 88 17 11 100.47 LegendNANA
02:00 18.2 LegendMM 89 16 11 100.41 LegendNANA
03:00 18.5 LegendMM 87 16 12 100.39 LegendNANA
04:00 19.5 LegendMM 88 17 14 100.37 LegendNANA
05:00 19.3 LegendMM 90 17 13 100.38 LegendNANA
06:00 19.4 LegendMM 90 18 14 100.39 LegendNANA
07:00 19.5 LegendMM 91 18 16 100.39 LegendNANA
08:00 19.9 LegendMM 90 19 20 100.40 LegendNANA
09:00 19.8 LegendMM 90 19 19 100.44 LegendNANA
10:00 20.0 LegendMM 90 19 17 100.46 LegendNANA
11:00 19.6 LegendMM 90 25 24 100.47 LegendNANA
12:00 19.2 LegendMM 80 30 24 100.53 LegendNANA
13:00 19.5 LegendMM 71 31 29 100.63 LegendNANA
14:00 18.9 LegendMM 69 31 33 100.70 LegendNANA
15:00 17.5 LegendMM 72 31 34 100.78 LegendNANA
16:00 17.2 LegendMM 69 32 38 100.83 LegendNANA
17:00 16.8 LegendMM 68 31 35 100.85 LegendNANA
18:00 16.1 LegendMM 69 32 31 100.91 LegendNANA
19:00 15.8 LegendMM 70 31 43 100.97 LegendNANA
20:00 15.5 LegendMM 69 32 39 101.03 LegendNANA
21:00 15.6 LegendMM 71 31 42 101.05 LegendNANA
22:00 15.8 LegendMM 73 32 39 101.08 LegendNANA
23:00 15.9 LegendMM 70 32 39 101.10 LegendNANA

Notes on Data Quality.

Legend
  • E = Estimated
  • M = Missing
  • NA = Not Available
  • ‡ = Partner data that is not subject to review by the National Climate Archives